{"data":{"norad_id":67683,"intl_designator":"1998-067XZ","name":"KNACKSAT-2","alt_names":[],"object_type":"PAYLOAD","status":"ACTIVE","operator":null,"country":"THAI","launch_date":"1998-11-20","launch_site_code":"TYMSC","launch_vehicle":null,"mission":null,"orbit_class":"UNKNOWN","rcs_meters":null,"size_class":null,"mass_kg":null,"dimensions":null,"purposes":["comms","station","tech_demo"],"wikipedia_slug":null,"has_3d_model":false,"image_url":null,"decayed_at":null,"tle_current":{"epoch":"2026-05-25T00:22:57.382752Z","epoch_age_seconds":67506,"freshness":"FRESH","line1":"1 67683U 98067XZ  26145.01594193  .00040983  00000+0  54507-3 0  9997","line2":"2 67683  51.6300  50.8353 0011915 116.1156 244.1064 15.57682767 16663","mean_motion":15.57682767,"eccentricity":0.0011915,"inclination_deg":51.63,"raan_deg":50.8353,"arg_perigee_deg":116.1156,"mean_anomaly_deg":244.1064,"bstar":0.00054507,"rev_number":1666,"period_min":92.445010659863,"perigee_km":386.29591502434,"apogee_km":402.43478812815,"semimajor_km":6772.5023515762,"source":"CELESTRAK","updated_at":"2026-05-25T13:38:25.536788Z"}}}